RH
5 5 5 6 10 14 12 11 12 12 12 12 10 9 10 8 9 9 11 13 12 15 13 14 14 12 20 22 22 22 22 28 33 37 44 49 47 42 39 38 40 44 47 46 43 41 42 43 42 41 42 43 44 44 43 41 40 43 43 42 40 40 42 42 39 37 35 37 40 39 37 36 35 35 34 33 33 32 28 24 21 21 22 23 22 21 20 18 18 19 20 24 27 29 29 27 26
4 5 4 7 12 15 13 10 11 13 9 9 9 8 9 7 8 12 18 18 15 18 18 16 16 16 21 24 23 23 24 31 36 38 42 45 43 41 39 41 43 44 48 48 43 41 42 43 42 41 42 44 45 46 45 43 41 41 42 41 39 38 39 38 36 36 36 39 41 39 39 40 40 39 37 36 34 32 30 25 21 19 20 21 21 21 20 18 18 20 20 23 27 29 30 28 27
4 5 6 9 13 13 13 10 10 11 10 9 7 7 8 7 11 18 20 19 19 19 19 19 21 22 21 25 25 27 33 35 36 37 40 41 40 39 37 40 40 41 46 46 43 41 43 42 42 42 42 44 45 46 46 45 44 44 43 41 38 36 36 36 37 39 42 47 48 45 45 45 43 42 40 37 36 35 33 32 27 22 21 21 21 21 20 19 18 19 21 23 26 29 30 29 27
4 6 9 12 12 11 13 12 9 9 10 7 6 7 7 8 12 19 19 21 24 21 21 23 25 27 25 30 30 30 36 34 35 36 38 38 36 36 37 37 37 39 41 42 42 42 43 43 42 42 42 43 44 45 45 45 46 47 46 43 40 37 38 39 40 44 50 54 52 50 49 47 45 43 41 39 39 40 40 43 38 30 25 22 22 22 21 19 18 19 21 23 26 30 31 30 28
5 7 10 12 12 11 13 13 10 8 9 7 6 7 7 8 11 14 16 21 26 24 25 26 29 31 31 34 31 33 38 33 34 34 34 36 35 37 38 36 37 39 40 40 41 42 43 43 42 43 42 43 43 43 45 46 48 48 48 47 45 42 43 42 44 50 55 57 53 52 50 48 46 44 43 41 42 43 44 49 48 40 31 26 24 24 23 21 19 18 20 23 26 30 31 31 30
8 9 11 11 12 11 12 12 9 7 7 6 7 8 8 9 10 10 11 16 24 31 31 29 32 37 37 36 33 37 39 34 34 34 34 36 37 38 37 37 38 40 41 41 42 42 43 43 43 44 44 44 44 44 46 48 50 50 49 50 50 50 49 46 47 52 57 58 54 51 50 49 48 46 44 42 43 44 44 47 51 48 39 33 29 28 27 24 21 19 20 22 26 31 32 33 31
9 11 10 10 9 9 10 10 8 6 6 7 8 9 9 9 9 8 9 11 19 29 32 30 32 38 42 39 37 40 40 37 36 35 34 36 38 38 37 37 38 39 40 43 46 48 46 45 45 46 46 47 46 46 48 50 53 52 51 50 53 56 54 52 52 54 59 59 55 52 51 50 49 48 45 43 43 43 44 47 52 54 44 36 33 30 30 28 25 21 21 21 26 31 33 34 33
10 10 9 10 10 9 10 9 7 7 7 7 7 8 8 8 8 8 9 9 16 25 31 30 30 38 44 41 41 42 41 40 38 36 34 36 36 36 36 35 38 40 41 48 54 56 54 51 48 49 51 51 51 50 51 54 58 58 54 53 57 60 58 58 58 57 61 60 55 53 52 51 51 48 46 44 44 43 44 49 53 56 48 40 36 32 31 32 29 26 24 22 24 31 34 34 35
10 10 8 10 12 10 9 8 8 7 7 8 7 7 8 7 7 8 9 9 15 23 31 34 33 40 44 41 44 44 43 41 38 36 34 35 35 35 34 34 40 41 44 50 57 60 58 56 53 54 56 57 58 57 57 60 65 66 60 59 64 65 64 64 62 62 63 60 56 53 52 53 51 48 46 43 45 46 44 47 52 55 51 42 39 36 33 33 34 31 28 24 23 29 34 36 38
9 9 9 10 11 10 8 7 7 7 7 7 7 8 8 7 6 9 10 12 13 19 30 35 36 42 44 42 43 43 43 42 39 37 35 35 34 34 33 36 42 43 46 50 59 66 60 58 59 60 63 62 63 64 62 65 71 72 71 71 71 70 70 68 65 65 64 61 57 54 53 52 50 46 46 43 44 45 43 47 51 55 53 47 43 38 36 36 36 33 31 29 26 27 33 37 39
10 9 9 10 10 9 8 8 7 8 8 6 8 9 9 7 6 8 11 15 14 19 30 33 34 38 41 41 40 41 42 40 37 37 35 34 33 34 35 38 43 44 46 50 60 70 63 59 62 65 70 71 70 69 69 72 78 76 78 79 76 75 74 71 68 68 66 61 56 54 53 50 48 47 46 45 43 43 45 48 52 56 57 55 52 43 38 38 37 35 34 32 29 29 32 37 39
12 10 8 10 9 8 8 8 8 8 7 7 8 9 9 8 8 7 10 15 13 20 30 32 35 35 35 35 37 40 40 38 36 35 34 34 35 35 38 41 45 44 45 50 56 63 64 63 66 69 73 79 78 77 77 77 81 81 83 85 82 79 75 73 71 69 65 60 56 54 53 51 49 47 47 47 47 46 47 48 51 57 59 60 59 48 39 36 38 37 34 32 29 30 33 37 41
12 12 9 9 9 9 9 8 8 8 8 9 9 9 11 11 10 9 11 13 12 24 33 32 33 33 36 35 36 38 36 37 35 34 35 36 37 38 42 43 46 46 46 51 54 59 67 66 65 72 77 84 86 84 84 81 82 82 83 85 82 79 77 75 72 69 65 59 58 57 55 52 49 48 48 47 48 47 48 48 50 56 58 59 59 49 40 34 34 33 30 29 29 31 34 37 41
12 13 11 10 9 9 8 8 9 8 9 11 10 8 14 16 16 13 12 13 16 29 35 32 31 32 38 35 34 35 32 36 35 35 37 37 39 41 45 45 49 50 49 54 58 63 76 77 72 79 85 84 83 84 84 82 83 81 81 81 78 77 79 77 72 68 65 61 60 58 55 52 50 50 49 46 45 46 46 48 51 53 54 55 53 49 46 39 32 29 26 26 27 31 34 38 41
12 11 11 11 10 10 8 9 10 9 11 13 10 9 14 20 20 15 14 22 26 31 33 32 32 33 38 38 40 38 34 36 36 37 38 38 42 43 46 49 52 53 53 61 66 67 77 88 83 83 88 81 79 83 82 81 82 79 79 80 78 79 80 77 73 69 65 63 61 59 56 54 53 52 49 46 44 45 47 49 50 51 50 50 51 52 52 47 39 33 26 24 24 28 33 38 42
11 11 11 12 10 10 10 10 10 9 12 13 11 10 14 20 22 19 19 27 29 29 31 32 31 31 33 36 40 36 34 37 37 37 37 38 43 46 48 50 52 55 57 61 68 70 72 82 85 85 87 79 77 81 81 86 85 75 76 79 81 82 80 77 74 70 66 63 62 59 57 56 57 55 52 50 47 47 49 51 50 49 48 48 51 52 52 50 46 40 31 25 22 24 29 35 41
11 11 12 12 10 11 10 11 10 11 14 13 11 11 13 18 23 24 22 25 27 29 31 31 30 30 30 30 33 32 34 38 37 37 37 38 42 46 49 49 53 56 58 59 65 73 73 72 76 80 83 79 77 80 82 84 81 75 79 83 84 84 81 79 72 67 63 62 61 58 56 58 58 57 56 54 51 51 52 53 52 50 49 47 48 49 49 47 46 44 40 32 25 23 25 31 37
11 11 12 11 10 11 10 10 11 13 15 13 12 14 14 15 21 26 26 27 27 27 29 31 30 29 30 30 32 35 37 38 37 38 38 39 40 42 46 49 53 53 55 61 65 75 80 74 73 77 81 84 82 82 82 79 76 79 84 85 85 84 80 75 67 62 62 61 60 57 58 59 59 59 57 56 54 55 55 55 54 51 49 48 48 50 50 48 44 43 44 41 33 26 25 30 34
11 12 13 12 11 11 11 10 12 13 13 13 14 15 14 13 20 26 32 31 26 25 27 28 29 29 30 31 35 37 38 38 39 38 38 38 37 39 45 50 54 55 55 59 66 75 82 79 79 80 78 80 81 77 76 76 79 84 86 86 85 81 75 70 64 62 63 62 59 58 60 59 60 61 58 56 55 55 56 55 54 51 50 50 48 49 49 48 46 44 44 46 42 35 34 36 36
11 13 14 12 11 12 11 10 11 12 12 13 14 15 15 14 17 23 32 33 29 30 29 26 29 31 31 33 37 38 39 40 40 39 38 37 37 40 46 51 54 58 62 65 72 79 82 81 80 80 77 77 79 76 75 76 79 85 86 84 81 75 71 69 66 64 63 63 62 60 59 58 60 61 57 55 54 55 54 54 54 54 55 54 52 53 54 51 49 50 49 49 49 47 46 43 41
13 14 13 12 12 12 11 10 11 13 12 13 14 15 14 15 16 19 27 30 30 33 35 33 33 35 35 35 38 39 41 41 40 39 38 39 41 43 47 52 53 56 65 69 77 79 80 82 77 76 79 79 78 78 77 78 81 83 83 80 75 71 70 71 67 64 63 64 64 62 60 59 59 60 59 57 57 56 54 52 54 57 60 59 58 64 67 62 57 57 56 55 55 55 53 49 47
14 14 12 13 14 12 12 11 11 12 13 14 14 15 14 15 16 18 21 27 31 31 36 37 31 34 36 34 36 38 41 41 40 39 41 42 42 44 47 51 51 55 64 66 72 75 75 81 79 76 80 80 79 80 79 81 82 80 78 77 74 72 70 70 67 63 62 62 63 62 61 59 57 57 58 56 55 54 52 51 53 57 62 62 62 68 70 69 67 64 61 60 58 55 53 52 51
13 13 12 13 12 11 12 11 11 12 14 13 14 15 14 14 15 16 18 25 30 26 28 28 26 34 37 35 35 36 40 41 41 41 42 43 42 45 46 48 49 55 64 65 69 73 73 80 83 81 82 82 81 81 81 83 83 80 77 75 73 72 70 68 64 61 60 59 59 60 60 57 54 53 51 51 50 49 49 50 52 56 63 65 64 67 69 69 70 69 63 60 61 58 56 56 53
12 13 14 13 11 11 11 11 11 12 13 14 14 15 15 14 15 15 17 20 21 21 24 22 26 36 36 34 35 37 39 39 41 42 43 44 45 47 47 46 48 54 60 61 63 67 70 77 81 81 83 86 83 80 81 82 81 79 77 76 75 73 70 67 63 61 61 59 58 57 56 54 52 48 46 48 48 48 47 48 52 56 61 65 64 68 73 72 70 69 65 63 63 63 60 58 53
11 13 15 14 11 11 11 11 12 12 13 14 14 15 15 15 15 15 16 16 17 20 22 21 27 34 33 33 36 37 38 39 40 41 44 46 47 50 48 46 47 54 58 55 56 59 62 71 78 80 81 84 82 78 78 78 77 77 76 77 78 76 71 66 62 62 62 59 56 54 52 49 47 45 43 45 46 47 48 49 54 58 60 62 62 65 70 70 70 69 70 70 68 67 65 60 55
13 12 15 14 12 12 11 11 12 12 12 13 14 15 15 15 16 15 14 17 19 20 22 24 28 30 31 33 37 39 39 40 39 40 48 51 51 51 50 49 49 51 53 53 55 54 55 62 70 74 76 79 78 76 76 75 75 74 72 72 74 72 66 62 61 59 56 55 54 52 48 43 43 45 44 44 44 46 48 50 55 60 62 61 62 64 64 65 68 70 74 77 75 74 72 66 60
14 14 14 13 13 13 11 11 12 13 12 13 14 15 16 15 15 15 17 20 21 22 24 27 29 30 31 34 39 41 39 39 38 43 52 53 52 49 50 56 56 52 51 53 56 55 54 58 64 68 72 77 77 75 74 74 72 71 69 68 68 64 59 62 63 57 52 52 51 48 45 42 43 46 47 46 45 46 48 51 56 62 65 65 66 67 64 65 70 73 78 80 80 80 77 71 66
14 14 14 13 12 12 11 11 12 12 13 13 14 14 15 16 15 16 20 22 22 23 25 28 29 30 31 35 41 41 40 39 39 44 47 49 51 49 51 57 57 56 52 50 55 57 57 58 62 67 72 76 75 72 71 70 67 65 65 65 62 57 55 60 60 54 50 49 47 43 41 42 46 49 49 48 46 47 49 52 56 62 65 65 67 70 70 71 72 75 77 80 81 79 77 76 75
13 13 13 13 13 13 11 11 12 12 13 13 13 14 14 15 15 16 20 22 23 23 25 28 29 32 33 38 43 41 40 38 41 47 42 44 52 54 58 59 56 56 52 50 55 55 56 56 58 68 72 71 68 64 63 61 60 62 62 62 59 55 57 59 58 52 46 44 42 40 41 45 50 52 51 50 49 50 51 51 56 59 59 61 64 70 74 74 72 71 71 74 77 79 79 80 81
12 13 14 14 13 13 12 12 12 12 13 12 13 14 14 15 15 17 20 22 23 22 24 27 30 34 36 41 43 41 40 39 44 52 45 40 48 53 57 59 56 56 51 51 53 52 55 55 56 63 64 61 59 55 58 60 62 64 64 64 62 61 60 56 54 49 42 41 38 38 43 47 50 50 49 46 47 51 51 52 56 57 54 56 62 68 74 73 69 68 68 70 75 79 82 82 84
12 14 14 13 14 14 12 12 12 12 13 12 13 14 15 15 15 17 21 22 22 22 23 27 32 35 37 40 41 41 41 40 46 52 46 41 45 48 50 54 55 54 52 49 50 49 52 56 59 62 59 58 56 55 62 65 65 64 63 62 60 59 57 53 51 43 38 38 35 37 40 40 41 44 44 42 41 45 49 51 54 56 53 54 59 66 71 71 66 67 69 69 71 75 77 78 80
13 14 14 13 14 15 14 13 12 12 13 12 12 14 15 15 16 17 20 21 21 22 24 26 32 36 38 38 37 41 42 42 44 45 43 40 43 48 49 53 53 52 52 49 48 48 50 54 60 65 64 63 60 57 61 62 62 63 59 55 51 50 50 50 50 42 36 34 32 35 36 33 34 36 37 36 38 40 45 49 50 52 52 52 56 63 68 68 66 70 73 71 70 73 74 72 74
13 13 14 15 14 14 16 14 13 13 13 13 13 13 14 15 16 15 18 20 19 21 24 26 31 36 38 38 37 39 41 42 43 42 41 38 40 46 47 50 51 51 53 51 48 50 53 55 59 66 64 59 55 53 54 55 55 56 51 46 45 46 45 45 46 42 37 30 27 31 31 31 31 32 33 32 35 38 40 45 48 50 50 49 52 60 69 70 68 71 73 73 70 70 72 71 70
15 12 15 18 16 14 16 16 14 13 13 13 13 13 14 16 16 14 16 19 19 20 23 26 32 37 38 38 38 39 39 42 43 40 39 39 40 42 42 46 48 49 53 52 49 51 56 57 58 60 57 51 49 50 52 53 51 48 44 41 39 39 37 35 35 36 38 31 25 26 28 28 27 30 33 32 35 37 39 43 46 49 51 50 51 59 70 71 69 71 72 71 67 67 71 70 69
18 14 15 18 16 14 16 18 17 15 14 14 14 14 14 15 16 15 16 18 20 20 22 25 32 37 38 38 39 38 38 41 43 40 39 39 39 39 42 46 45 43 49 52 49 50 56 57 55 56 57 54 50 52 57 57 53 47 42 40 38 37 35 31 28 29 36 38 32 29 28 30 30 31 32 33 36 37 40 44 45 48 49 51 53 59 68 68 66 68 70 70 67 67 72 70 67
19 16 15 17 17 15 15 19 20 16 15 16 16 16 15 16 16 15 17 20 21 20 22 25 32 37 38 38 38 37 38 42 42 40 39 38 38 38 41 45 44 42 48 53 48 49 55 55 54 57 62 61 55 56 59 58 57 52 48 47 44 43 41 36 32 31 38 44 42 33 29 32 32 33 33 33 37 38 42 47 47 48 49 51 54 58 66 68 66 64 66 68 66 68 72 71 66
18 18 15 17 18 17 17 19 20 17 17 18 18 19 17 17 17 16 18 20 21 21 22 25 32 37 37 37 38 36 38 41 41 41 40 37 38 40 39 41 44 44 48 53 49 51 57 56 57 58 58 61 61 60 58 56 57 54 53 52 48 45 42 37 32 31 35 43 44 36 31 33 35 37 38 36 39 40 42 46 48 49 51 52 53 56 63 67 65 63 63 64 65 65 66 65 61
16 16 16 17 17 17 19 20 19 17 18 20 21 20 17 17 17 17 18 19 19 20 21 25 32 36 37 37 37 36 37 36 38 42 41 37 38 41 41 41 46 46 47 51 50 53 57 57 56 54 53 58 60 59 57 56 57 57 57 54 50 47 43 40 36 31 34 39 41 39 33 30 32 36 38 38 40 42 42 44 46 48 50 49 49 50 55 60 62 62 62 63 65 64 63 62 60
17 17 18 19 17 17 21 21 18 18 18 21 22 18 17 18 17 17 17 17 19 22 23 27 32 35 35 36 36 36 37 36 38 41 41 42 42 42 44 45 48 49 50 53 55 60 62 58 55 53 55 57 57 55 54 53 53 55 55 52 50 47 41 38 36 32 34 35 34 39 37 30 28 31 35 38 40 41 41 41 43 46 48 48 48 48 50 56 61 62 61 61 64 65 65 65 61
18 20 20 20 18 18 20 21 19 19 20 22 20 17 18 18 16 15 16 17 22 24 26 29 33 34 36 37 37 38 38 39 40 40 42 47 46 47 52 56 58 61 65 66 61 59 58 54 50 52 54 54 52 52 51 50 50 51 51 48 45 42 36 33 34 33 32 31 29 32 36 33 29 29 33 38 41 42 42 41 42 43 45 46 48 48 50 54 58 60 59 59 62 63 64 61 55
18 20 21 20 20 18 21 24 22 22 23 21 18 18 19 17 16 15 15 19 22 23 25 28 31 35 37 38 38 40 41 41 44 43 43 47 53 60 63 65 69 73 77 72 57 48 50 50 47 49 52 52 51 51 50 49 48 49 50 49 46 43 40 40 43 40 34 34 32 28 29 30 32 32 32 36 39 39 39 40 40 40 40 42 44 45 47 49 51 54 55 56 56 57 58 52 46
19 19 19 21 22 21 23 26 25 24 24 20 17 21 22 17 16 17 16 18 20 22 24 25 29 34 37 39 40 44 43 43 45 43 44 50 56 60 60 62 66 68 70 64 55 52 53 51 49 51 53 53 54 54 53 50 47 48 51 54 54 51 50 51 50 47 44 42 39 34 30 26 28 29 30 34 35 33 33 34 37 39 39 40 41 43 44 42 43 47 49 48 46 45 47 44 40
19 18 16 17 22 23 23 24 24 23 26 23 19 24 29 23 18 19 19 19 20 24 26 26 30 34 37 39 41 43 43 45 46 43 47 52 49 47 52 59 62 62 65 64 62 62 61 55 57 62 59 53 55 56 53 50 49 52 56 58 58 56 54 50 45 45 46 42 35 32 29 24 24 24 25 29 29 25 25 26 27 30 34 34 33 35 36 33 35 40 43 43 42 41 41 41 39
20 20 17 17 21 22 22 24 23 23 27 27 20 23 30 29 23 21 21 21 22 26 28 30 33 35 38 40 41 43 44 47 49 47 49 50 45 44 48 55 59 60 66 73 72 69 65 62 64 67 63 56 55 55 52 49 51 54 57 58 57 55 50 42 40 41 39 37 33 32 31 27 25 24 24 26 26 23 22 23 24 23 26 28 27 29 30 28 31 35 35 35 39 42 41 39 38
22 21 19 21 23 21 21 23 23 23 27 29 23 21 27 31 28 24 23 23 25 28 31 35 37 38 40 41 43 45 45 46 47 46 47 46 46 45 44 49 55 57 62 73 80 77 70 69 70 68 65 60 56 55 52 48 49 52 52 52 53 53 48 42 42 40 36 36 35 33 36 35 25 21 22 22 24 25 22 24 27 25 25 28 31 34 31 28 30 31 30 31 34 38 38 36 37
23 23 21 23 23 22 21 23 26 26 26 28 29 24 26 34 32 26 25 27 31 35 36 37 38 39 41 43 46 48 46 43 42 43 45 46 47 45 44 48 54 58 59 65 76 81 78 75 73 70 67 65 63 60 57 51 51 53 53 52 53 53 52 47 46 41 38 41 41 35 37 39 31 24 21 19 21 23 21 25 29 25 24 28 33 33 26 24 27 26 27 32 35 35 35 34 35
23 25 23 23 23 23 22 23 28 29 26 27 32 29 27 34 34 29 30 33 36 39 38 37 37 37 39 42 46 48 46 42 40 42 45 47 47 47 49 51 54 59 64 68 72 74 76 74 71 70 69 70 70 67 64 59 57 58 57 57 57 57 53 49 48 45 43 46 48 43 39 39 38 31 26 22 20 21 20 23 27 24 23 24 26 25 22 25 30 28 27 30 35 35 33 31 32
23 25 23 23 25 23 23 26 28 29 29 29 32 32 28 32 37 35 35 34 35 39 38 37 37 38 38 38 41 44 45 42 40 43 47 49 47 49 53 53 55 60 62 66 67 63 65 69 69 68 69 72 71 68 63 60 59 60 60 60 61 60 54 50 50 50 51 51 49 47 44 42 41 37 34 28 21 21 22 23 24 24 23 22 22 24 25 28 32 32 30 28 30 32 30 30 32
23 24 24 24 28 27 26 29 28 27 32 34 34 33 28 30 37 38 36 34 34 37 39 39 39 39 38 36 37 41 42 41 41 43 49 51 49 50 56 58 61 65 63 65 67 60 59 68 71 68 69 72 71 66 63 61 60 60 61 60 62 61 55 52 53 52 55 54 50 50 51 48 46 42 38 33 25 23 26 26 26 26 24 21 22 23 25 29 32 33 32 29 31 34 35 37 37
24 24 24 24 30 33 28 28 30 29 34 36 34 34 30 31 36 36 38 39 37 38 39 41 41 41 39 36 37 40 41 40 40 42 47 51 50 51 56 60 63 66 66 69 74 67 58 62 66 65 67 71 70 66 63 60 58 58 59 59 62 62 57 55 57 55 56 57 54 53 54 51 50 47 39 32 26 23 22 20 19 21 20 20 21 21 23 29 33 36 36 33 34 34 31 31 28
25 24 25 24 28 33 29 27 30 31 33 35 35 33 30 33 39 38 39 40 38 40 41 42 43 42 40 38 38 39 41 41 41 41 43 48 51 51 54 60 63 67 67 68 72 71 63 58 58 61 65 64 62 61 59 55 53 55 57 60 64 65 62 61 61 59 58 59 57 56 58 56 54 48 37 28 26 23 20 17 14 14 15 17 19 19 20 23 27 32 32 27 26 22 17 16 14
28 25 27 28 28 30 31 32 34 33 33 35 34 32 30 34 39 39 40 40 38 41 43 43 44 43 42 40 40 41 42 43 43 41 41 44 48 49 52 58 61 67 69 68 68 71 71 67 65 68 68 61 56 57 58 54 52 53 57 62 66 63 58 58 60 58 58 59 55 52 55 56 51 45 35 29 29 26 23 21 16 13 13 13 14 14 16 17 18 21 20 17 16 13 11 11 10
34 29 27 27 27 29 31 32 33 32 32 34 34 34 32 34 37 39 41 42 41 41 43 44 45 45 45 44 44 44 44 44 43 42 43 46 48 48 51 56 60 66 68 67 71 75 76 75 74 71 67 62 58 55 53 50 49 53 57 62 67 64 56 57 59 59 59 60 56 50 50 51 48 42 36 32 32 30 27 24 20 16 14 14 15 16 18 19 18 20 20 18 18 17 17 16 15
35 34 31 29 29 29 30 31 33 30 30 32 34 35 34 32 36 40 41 43 44 44 44 46 46 46 47 47 47 48 48 46 45 46 49 51 50 49 49 51 52 57 60 63 67 71 69 67 68 66 63 59 54 46 42 40 42 49 54 55 60 61 57 58 61 62 62 61 57 53 54 55 51 44 38 34 34 33 30 26 23 21 20 19 20 21 22 23 23 23 23 23 23 23 23 22 23
31 34 33 34 35 32 31 32 34 33 31 32 34 34 32 33 38 43 45 46 47 46 46 47 47 47 47 48 48 48 47 45 44 47 50 50 49 47 47 47 47 50 55 57 59 61 64 61 58 58 57 53 47 39 37 37 38 43 47 47 49 53 53 51 53 55 56 57 57 55 59 62 55 47 40 36 37 38 34 32 30 28 26 24 24 25 26 26 27 27 27 27 28 28 28 28 30
30 30 32 34 36 36 37 35 33 33 33 34 36 34 31 36 42 44 47 50 49 48 49 49 49 49 49 49 49 48 47 46 45 47 48 48 47 47 48 50 52 53 52 54 56 61 64 59 52 53 54 51 46 41 40 41 39 40 43 43 45 50 52 49 49 49 46 51 58 57 60 62 56 48 43 40 42 43 40 38 36 35 33 30 29 30 30 30 31 33 34 34 34 34 34 35 35
32 31 30 31 31 32 36 37 35 35 35 37 39 35 35 41 43 42 46 50 51 51 52 52 53 54 53 53 52 50 49 48 48 47 48 49 51 52 53 54 56 54 51 52 55 57 57 54 52 52 53 53 50 47 47 46 43 42 42 43 44 47 48 49 51 49 46 51 57 56 57 56 49 45 44 45 46 46 45 44 42 42 41 39 38 36 36 37 37 36 38 38 39 40 40 39 38
34 33 32 31 32 31 33 34 35 34 35 37 38 37 41 45 42 42 45 46 49 51 51 50 51 52 51 50 49 48 48 47 48 48 49 52 56 58 60 63 64 60 55 53 54 55 57 59 58 56 55 56 56 55 53 50 47 45 43 42 40 41 43 46 49 49 47 50 54 54 52 48 44 42 44 46 47 46 47 46 46 46 46 45 44 41 41 44 43 41 39 39 40 43 43 40 39